Location: Saint-Palais-sur-Mer
(45.6429°N, 1.0859°W)
Time: 15:39:16
(UTC+01:00)

S-56A Canister/Altair - Pass Details

Date: 14 February 2026
Orbit: 633 x 2484 km, 38.9° (Epoch: 16 March)

Event Time Altitude Azimuth Distance (km) Brightness Sun altitude
Exits shadow 02:12:34 11° 91° (E) 3,970 11.2 -55.5°
Drops below altitude 10° 02:12:59 10° 90° (E) 4,101 11.3 -55.4°
Sets 02:17:09 0° 85° (E) 5,388 12.1 -55.1°
